Regional Weather Roundup
Issued by NWS Boston, MA

Home | Current Version | Previous Version | Text Only | Print | Product List | Glossary On
Versions: 1 2 3 4 5 6 7 8 9 10 11 12 13 14 15 16 17 18 19 20 21 22 23 24 25 26 27
000
ASUS41 KBOX 270610
RWRBOX

REGIONAL WEATHER ROUNDUP
NATIONAL WEATHER SERVICE TAUNTON MA
200 AM EDT SAT AUG 27 2016

NOTE:  "FAIR" INDICATES FEW OR NO CLOUDS BELOW 12,000 FEET WITH NO
SIGNIFICANT WEATHER AND/OR OBSTRUCTIONS TO VISIBILITY.

MAZALL-270700-
EASTERN MASSACHUSETTS

CITY           SKY/WX    TMP DP  RH WIND       PRES   REMARKS
BOSTON         FAIR      76  59  55 N7        30.07R
6HR MIN TEMP:  76; 6HR MAX TEMP:  86;

BEVERLY        FAIR      68  62  81 NW6       30.06R
LAWRENCE       FAIR      71  61  70 CALM      30.10R
BEDFORD        FAIR      65  61  87 CALM      30.07R
BLUE HILL        N/A     71  60  68 N10       30.08R
NORWOOD        FAIR      62  60  93 CALM      30.07R FOG
MARSHFIELD     FAIR      75  61  60 VRB7      30.06R
PLYMOUTH       CLOUDY    73  63  70 N6        30.07R
TAUNTON        FOG       65  63  93 CALM      30.06R VSB 1
NEW BEDFORD    FAIR      72  66  81 NW3       30.06R
$$

MAZALL-270700-
CAPE COD AND THE ISLANDS

CITY           SKY/WX    TMP DP  RH WIND       PRES   REMARKS
FALMOUTH         N/A     72  66  83 N6          N/A
HYANNIS        FAIR      72  69  90 N7        30.04R
CHATHAM        FAIR      73  70  90 N3        30.06R
PROVINCETOWN   FAIR      70  65  84 N6        30.06R
NANTUCKET      FOG       71  70  96 N3        30.04R VSB 1/4
MARTHAS VNYRD  FAIR      71  69  93 N7        30.04R
$$

MAZALL-270700-
CENTRAL AND WESTERN MASSACHUSETTS

CITY           SKY/WX    TMP DP  RH WIND       PRES   REMARKS
WORCESTER      FAIR      73  55  53 N10       30.13R
6HR MIN TEMP:  69; 6HR MAX TEMP:  75;

FITCHBURG      FAIR      65  60  84 N5        30.11R
ORANGE         FAIR      62  61  96 CALM      30.12R
SPRINGFIELD    FAIR      62  61  95 NE2       30.09R
WESTFIELD      FAIR      68  61  78 NE3       30.10R
NORTH ADAMS    FAIR      60  58  92 CALM      30.14R
PITTSFIELD     FAIR      61  57  87 CALM      30.14S
$$

RIZALL-270700-
RHODE ISLAND

CITY           SKY/WX    TMP DP  RH WIND       PRES   REMARKS
PROVIDENCE     FAIR      75  64  68 N7        30.08R
6HR MIN TEMP:  75; 6HR MAX TEMP:  84;

NEWPORT        FAIR      72  66  81 N5        30.07R
BLOCK ISLAND   FAIR      73  67  81 N9        30.06R
SMITHFIELD     FAIR      70  63  78 N5        30.10R
WESTERLY       FAIR      73  64  73 N6        30.07R
$$

CTZALL-270700-
CONNECTICUT

CITY           SKY/WX    TMP DP  RH WIND       PRES   REMARKS
BRADLEY INTL   FAIR      71  60  68 N8        30.09S
6HR MIN TEMP:  68; 6HR MAX TEMP:  78;

HARTFORD       FAIR      73  63  70 CALM      30.09R
BRIDGEPORT     FAIR      76  59  55 N10       30.08R
DANBURY        FAIR      62  60  93 CALM      30.13R
GROTON         FAIR      75  64  68 N9        30.06R
NEW HAVEN      FAIR      73  60  63 N8        30.09R
CHESTER        FAIR      73  63  68 N9        30.10R
MERIDEN        FAIR      67  61  81 CALM      30.09S
WILLIMANTIC    FAIR      68  67  96 CALM      30.10R
OXFORD           N/A     70  55  60 N10       30.14R
$$

MEZ002-015-021-024-NHZ003-005-008-011-012-014-VTZ005-008-270700-
NORTHERN NEW ENGLAND

CITY           SKY/WX    TMP DP  RH WIND       PRES   REMARKS
PORTLAND ME    FAIR      67  58  72 W5        30.06R
6HR MIN TEMP:  65; 6HR MAX TEMP:  80;

BANGOR ME      FAIR      67  58  72 W7        30.03R
CONCORD NH     FAIR      62  59  90 CALM      30.10R
MANCHESTER NH  FAIR      69  60  73 CALM      30.08R
NASHUA NH      FAIR      68  63  84 NW5       30.10R
PORTSMOUTH NH  CLEAR     65  58  80 W2        30.06R
JAFFREY NH     FAIR      60  57  89 CALM      30.14R
KEENE NH       FAIR      61  60  97 CALM      30.13R
BURLINGTON VT  MOCLDY    68  60  75 E3        30.11R
MT. WASHINGTON FOG       46  46 100 N39G56      N/A  VSB 1/8
$$

NYZ052-076-270700-
EASTERN NEW YORK

CITY           SKY/WX    TMP DP  RH WIND       PRES   REMARKS
ALBANY         FAIR      67  60  78 NW7       30.13R
6HR MIN TEMP:  66; 6HR MAX TEMP:  78;

NEW YORK CITY  PTCLDY    80  64  58 N9        30.08S
6HR MIN TEMP:  79; 6HR MAX TEMP:  87;

$$

ANZALL-270700-
MARINE OBSERVATIONS

STATION/POSITION TIME  TEMP    WIND        PRES    VSBY  WAVE
                       AIR SEA DIR/SP/G                  HT/PER
                 (UTC) (F)     (DEG/KT/KT) (MB)    (MI)  (FT/S)
BOSTON BUOY      0550   72 70  340/ 10/ 10 1017.7R         1
BUZZARDS BAY     0500   76     350/ 13/ 13 1017.2R
NANTUCKET SOUND  0550   75 75  330/  4/  4 1017.0R         1
MASS BAY-STELLWA 0504   71 66  340/ 10/ 10 1017.2R  1 7/8  1/ 8
ISLE OF SHOALS   0600   72     340/  8/  8 1017.8R
S OF BLOCK IS    0525      75                N/A           3/ 6
$$

......................KEY.........................
  SKY/WX - SKY CONDITION/PRESENT WEATHER
  TMP    - TEMPERATURE IN FAHRENHEIT
  DWPT   - DEWPOINT IN FAHRENHEIT
  RH     - RELATIVE HUMIDITY IN PERCENT
  WIND   - DIRECTION AND SPEED IN MPH
  PRES   - MEAN SEA LEVEL PRESSURE IN INCHES OF HG
  WCI    - WIND CHILL INDEX
  VSB    - VISIBILITY IN MILES
  HX     - HEAT INDEX
  TC     - TEMPERATURE IN CELSIUS
  VRB    - VARIABLE WIND DIRECTION
  N/A    - NOT AVAILABLE




USA.gov is the U.S. government's official web portal to all federal, state and local government web resources and services.